{"data":{"norad_id":58544,"epoch":"2026-09-20T15:03:46.146816Z","epoch_age_seconds":135715,"freshness":"FRESH","line1":"1 58544U 23192P   26263.62761744  .00001536  00000+0  56598-4 0  9990","line2":"2 58544  53.1577 234.9361 0001360  92.1647 267.9511 15.34393749155867","mean_motion":15.34393749,"eccentricity":0.000136,"inclination_deg":53.1577,"raan_deg":234.9361,"arg_perigee_deg":92.1647,"mean_anomaly_deg":267.9511,"bstar":5.6598e-5,"rev_number":15586,"period_min":93.848140409753,"perigee_km":461.79146276006,"apogee_km":463.65217635898,"semimajor_km":6840.8588195595,"source":"CELESTRAK","updated_at":"2026-09-21T09:00:33.914759Z"}}